Terminal Aerodrome Forecast
Issued by NWS

Home | Current Version | Previous Version | Text Only | Print | Product List | Glossary On
Versions: 1 2 3 4 5 6 7 8 9 10 11 12 13 14 15 16 17 18 19 20 21
000
FTUS43 KPAH 260211 AAB
TAFCGI
TAF AMD
KCGI 260211Z 2602/2624 03013G20KT P6SM VCTS OVC040CB
      TEMPO 2602/2604 VRB20G40KT 1SM +TSRA BR BKN008CB
     FM260900 35012G19KT 3SM -SHRA BR OVC015
     FM261600 36015KT 5SM -RA BKN035=

USA.gov is the U.S. government's official web portal to all federal, state and local government web resources and services.